Hourly Weather Russkiy Sarsaz

Today, 22 April, Thursday

Time Temperature Precipitation Wind Pressure Humidity
00:00 +3°C° 0.5 mm 6 mps 749 mmHg 71%
01:00 0°C° 0.5 mm 7 mps 750 mmHg 85%
02:00 0°C° 1.6 mm 7 mps 749 mmHg 88%
03:00 -1°C° 1.6 mm 7 mps 749 mmHg 92%
04:00 -1°C° 0 mm 7 mps 749 mmHg 96%
05:00 -1°C° 0.8 mm 6 mps 749 mmHg 96%
06:00 -1°C° 0.8 mm 6 mps 749 mmHg 96%
07:00 -1°C° 0.8 mm 6 mps 749 mmHg 96%
08:00 +1°C° 0.1 mm 5 mps 750 mmHg 96%
09:00 +1°C° 0.1 mm 5 mps 750 mmHg 95%
10:00 +1°C° 0.1 mm 5 mps 750 mmHg 94%
11:00 +2°C° 0 mm 5 mps 750 mmHg 91%
12:00 +3°C° 0 mm 5 mps 750 mmHg 87%
13:00 +3°C° 0 mm 5 mps 750 mmHg 84%
14:00 +5°C° 0 mm 4 mps 750 mmHg 81%
15:00 +5°C° 0 mm 4 mps 750 mmHg 79%
16:00 +5°C° 0 mm 4 mps 750 mmHg 76%
17:00 +5°C° 0 mm 4 mps 750 mmHg 78%
18:00 +5°C° 0 mm 4 mps 750 mmHg 79%
19:00 +5°C° 0 mm 4 mps 750 mmHg 81%
20:00 +4°C° 0 mm 4 mps 750 mmHg 84%
21:00 +4°C° 0 mm 4 mps 750 mmHg 87%
22:00 +3°C° 0 mm 4 mps 750 mmHg 90%
23:00 +3°C° 0 mm 4 mps 750 mmHg 90%

Tomorrow, 23 April, Friday

Time Temperature Precipitation Wind Pressure Humidity
00:00 +1°C° 0 mm 4 mps 750 mmHg 90%
01:00 +1°C° 0 mm 4 mps 750 mmHg 90%
02:00 +1°C° 0 mm 3 mps 750 mmHg 92%
03:00 +1°C° 0 mm 3 mps 751 mmHg 94%
04:00 0°C° 0 mm 3 mps 751 mmHg 96%
05:00 +1°C° 0 mm 3 mps 751 mmHg 94%
06:00 +1°C° 0 mm 3 mps 751 mmHg 92%
07:00 +2°C° 0 mm 3 mps 751 mmHg 90%
08:00 +3°C° 0 mm 3 mps 751 mmHg 86%
09:00 +4°C° 0 mm 3 mps 751 mmHg 82%
10:00 +5°C° 0 mm 3 mps 751 mmHg 78%
11:00 +7°C° 0 mm 3 mps 751 mmHg 73%
12:00 +9°C° 0 mm 3 mps 751 mmHg 68%
13:00 +10°C° 0 mm 3 mps 751 mmHg 62%
14:00 +11°C° 0 mm 3 mps 750 mmHg 60%
15:00 +12°C° 0 mm 3 mps 750 mmHg 58%
16:00 +12°C° 0 mm 3 mps 750 mmHg 56%
17:00 +11°C° 0 mm 3 mps 750 mmHg 59%
18:00 +11°C° 0 mm 3 mps 750 mmHg 63%
19:00 +10°C° 0 mm 3 mps 749 mmHg 67%
20:00 +9°C° 0 mm 3 mps 749 mmHg 71%
21:00 +7°C° 0 mm 4 mps 749 mmHg 76%
22:00 +6°C° 0 mm 4 mps 749 mmHg 81%
23:00 +6°C° 0 mm 4 mps 748 mmHg 83%

Day after tomorrow, 24 April, Saturday

Time Temperature Precipitation Wind Pressure Humidity
00:00 +5°C° 0 mm 4 mps 748 mmHg 85%
01:00 +4°C° 0 mm 4 mps 747 mmHg 88%
02:00 +4°C° 0 mm 4 mps 747 mmHg 89%
03:00 +4°C° 0 mm 4 mps 747 mmHg 90%
04:00 +4°C° 0 mm 3 mps 746 mmHg 92%
05:00 +4°C° 0 mm 3 mps 746 mmHg 92%
06:00 +4°C° 0 mm 3 mps 745 mmHg 92%
07:00 +5°C° 0 mm 3 mps 745 mmHg 92%
08:00 +5°C° 0.2 mm 3 mps 744 mmHg 92%
09:00 +5°C° 0.2 mm 4 mps 744 mmHg 93%
10:00 +5°C° 0.2 mm 4 mps 744 mmHg 93%
11:00 +5°C° 0.2 mm 4 mps 743 mmHg 93%
12:00 +5°C° 0.2 mm 4 mps 743 mmHg 92%
13:00 +5°C° 0.2 mm 4 mps 742 mmHg 92%
14:00 +5°C° 0.3 mm 4 mps 742 mmHg 92%
15:00 +5°C° 0.3 mm 4 mps 742 mmHg 91%
16:00 +5°C° 0.3 mm 4 mps 741 mmHg 91%
17:00 +5°C° 0.3 mm 4 mps 741 mmHg 92%
18:00 +5°C° 0.3 mm 3 mps 741 mmHg 93%
19:00 +4°C° 0.3 mm 3 mps 740 mmHg 94%
20:00 +5°C° 0.6 mm 2 mps 740 mmHg 95%
21:00 +5°C° 0.6 mm 2 mps 740 mmHg 96%
22:00 +6°C° 0.6 mm 1 mps 739 mmHg 96%
23:00 +5°C° 0.1 mm 2 mps 739 mmHg 96%

25 April, Sunday

Time Temperature Precipitation Wind Pressure Humidity
00:00 +5°C° 0.1 mm 2 mps 739 mmHg 95%
01:00 +4°C° 0.1 mm 3 mps 738 mmHg 94%
02:00 +4°C° 0 mm 3 mps 738 mmHg 94%
03:00 +4°C° 0 mm 3 mps 738 mmHg 95%
04:00 +3°C° 0 mm 4 mps 737 mmHg 95%
05:00 +4°C° 0.5 mm 4 mps 737 mmHg 95%
06:00 +3°C° 0.5 mm 5 mps 736 mmHg 94%
07:00 +3°C° 0.5 mm 5 mps 736 mmHg 94%
08:00 +3°C° 0.4 mm 6 mps 736 mmHg 91%
09:00 +4°C° 0.4 mm 6 mps 736 mmHg 89%
10:00 +4°C° 0.4 mm 6 mps 736 mmHg 86%
11:00 +3°C° 0.2 mm 7 mps 736 mmHg 88%
12:00 +1°C° 0.2 mm 8 mps 737 mmHg 89%
13:00 +1°C° 0.2 mm 8 mps 738 mmHg 90%
14:00 +4°C° 0.1 mm 8 mps 738 mmHg 77%
15:00 +6°C° 0.1 mm 8 mps 738 mmHg 64%
16:00 +9°C° 0.1 mm 8 mps 739 mmHg 50%
17:00 +8°C° 0 mm 7 mps 739 mmHg 52%
18:00 +8°C° 0 mm 6 mps 739 mmHg 54%
19:00 +7°C° 0 mm 5 mps 740 mmHg 56%
20:00 +6°C° 0 mm 4 mps 740 mmHg 62%
21:00 +4°C° 0 mm 4 mps 740 mmHg 68%
22:00 +3°C° 0 mm 4 mps 741 mmHg 74%
23:00 +3°C° 0 mm 4 mps 741 mmHg 78%

26 April, Monday

Time Temperature Precipitation Wind Pressure Humidity
00:00 +2°C° 0 mm 3 mps 741 mmHg 82%
01:00 +2°C° 0 mm 3 mps 741 mmHg 87%
02:00 +2°C° 0 mm 3 mps 741 mmHg 87%
03:00 +2°C° 0 mm 3 mps 741 mmHg 88%
04:00 +1°C° 0 mm 3 mps 742 mmHg 89%
05:00 +1°C° 0.1 mm 4 mps 742 mmHg 88%
06:00 +3°C° 0.1 mm 4 mps 742 mmHg 87%
07:00 +3°C° 0.1 mm 4 mps 742 mmHg 86%
08:00 +3°C° 0.2 mm 5 mps 742 mmHg 76%
09:00 +5°C° 0.2 mm 6 mps 742 mmHg 66%
10:00 +7°C° 0.2 mm 6 mps 742 mmHg 55%
11:00 +6°C° 0 mm 7 mps 742 mmHg 50%
12:00 +8°C° 0 mm 7 mps 743 mmHg 45%
13:00 +8°C° 0 mm 7 mps 743 mmHg 39%
14:00 +9°C° 0 mm 7 mps 743 mmHg 38%
15:00 +9°C° 0 mm 7 mps 743 mmHg 37%
16:00 +9°C° 0 mm 7 mps 743 mmHg 36%
17:00 +9°C° 0 mm 6 mps 743 mmHg 41%
18:00 +8°C° 0 mm 5 mps 743 mmHg 46%
19:00 +7°C° 0 mm 4 mps 743 mmHg 51%
20:00 +7°C° 0 mm 3 mps 743 mmHg 55%
21:00 +5°C° 0 mm 3 mps 743 mmHg 58%
22:00 +5°C° 0 mm 2 mps 743 mmHg 61%
23:00 +5°C° 0 mm 2 mps 742 mmHg 62%

27 April, Tuesday

Time Temperature Precipitation Wind Pressure Humidity
00:00 +5°C° 0 mm 2 mps 742 mmHg 63%
01:00 +5°C° 0 mm 2 mps 742 mmHg 65%
02:00 +4°C° 0 mm 2 mps 742 mmHg 66%
03:00 +4°C° 0 mm 2 mps 742 mmHg 67%
04:00 +4°C° 0 mm 1 mps 741 mmHg 68%
05:00 +5°C° 0 mm 1 mps 741 mmHg 66%
06:00 +6°C° 0 mm 1 mps 741 mmHg 64%
07:00 +6°C° 0 mm 1 mps 741 mmHg 62%
08:00 +7°C° 0 mm 2 mps 740 mmHg 57%
09:00 +8°C° 0 mm 3 mps 740 mmHg 51%
10:00 +10°C° 0 mm 4 mps 739 mmHg 45%
11:00 +11°C° 0 mm 4 mps 739 mmHg 42%
12:00 +11°C° 0 mm 4 mps 738 mmHg 40%
13:00 +12°C° 0 mm 5 mps 738 mmHg 38%
14:00 +12°C° 0 mm 5 mps 737 mmHg 36%
15:00 +13°C° 0 mm 5 mps 736 mmHg 34%
16:00 +13°C° 0 mm 5 mps 736 mmHg 33%
17:00 +12°C° 0 mm 5 mps 735 mmHg 38%
18:00 +11°C° 0 mm 4 mps 735 mmHg 44%
19:00 +11°C° 0 mm 3 mps 734 mmHg 49%
20:00 +8°C° 0.2 mm 4 mps 734 mmHg 60%
21:00 +6°C° 0.2 mm 4 mps 734 mmHg 71%
22:00 +3°C° 0.2 mm 5 mps 734 mmHg 82%
23:00 +3°C° 0.1 mm 5 mps 734 mmHg 79%
Show more